Latest Coastal Weather Observations for Esperance Harbour

IDW60701

Issued at 6:22 am WST Saturday 6 February 2016 (issued every 10 minutes, with the page automatically refreshed every 10 minutes)

About coastal observations | Map of coastal stations | Coastal observations for WA | Marine services | Other Formats
Station Details ID: 109504 Name: ESPERANCE NTC AWS Lat: -33.87 Lon: 121.90 Height: 0.0 m
Data from the previous 72 hours. | See also: Recent months for locations in Western Australia
Date/Time
WST
Temp

°C
Wind Pressure Rain
since 9am
mm
Weather Cloud Vis
km
Sea
Height
m
Swell
Dir
 
Speed
knots
Gust
knots
hPa Trend Height
m
Period
s
Dir
06/06:00am 17.4 - - - 1016.4 - - - - - - - - -
06/05:30am 17.4 - - - 1015.9 - - - - - - - - -
06/05:00am 17.4 - - - 1015.8 - - - - - - - - -
06/04:30am 17.8 - - - 1015.3 - - - - - - - - -
06/04:00am 17.7 - - - 1015.0 - - - - - - - - -
06/03:30am 17.9 - - - 1014.9 - - - - - - - - -
06/03:00am 17.9 - - - 1014.7 - - - - - - - - -
06/02:30am 17.9 - - - 1014.7 - - - - - - - - -
06/02:00am 18.5 - - - 1014.8 - - - - - - - - -
06/01:30am 18.6 - - - 1014.9 - - - - - - - - -
06/01:00am 19.2 - - - 1015.1 - - - - - - - - -
06/12:30am 19.6 - - - 1015.3 - - - - - - - - -
06/12:00am 19.7 - - - 1015.6 - - - - - - - - -
 
Date/Time
WST
Temp

°C
Wind Pressure Rain
since 9am
mm
Weather Cloud Vis
km
Sea
Height
m
Swell
Dir
 
Speed
knots
Gust
knots
hPa Trend Height
m
Period
s
Dir
05/11:30pm 20.1 - - - 1015.6 - - - - - - - - -
05/11:00pm 20.4 - - - 1015.8 - - - - - - - - -
05/10:30pm 20.7 - - - 1015.7 - - - - - - - - -
05/10:00pm 20.9 - - - 1015.7 - - - - - - - - -
05/09:30pm 21.2 - - - 1015.7 - - - - - - - - -
05/09:00pm 21.0 - - - 1016.0 - - - - - - - - -
05/08:30pm 21.1 - - - 1015.9 - - - - - - - - -
05/08:00pm 21.4 - - - 1015.8 - - - - - - - - -
05/07:30pm 21.6 - - - 1015.6 - - - - - - - - -
05/07:00pm 21.9 - - - 1015.5 - - - - - - - - -
05/06:30pm 22.2 - - - 1015.3 - - - - - - - - -
05/06:00pm 22.5 - - - 1015.2 - - - - - - - - -
05/05:30pm 22.6 - - - 1015.1 - - - - - - - - -
05/05:00pm 23.2 - - - 1015.1 - - - - - - - - -
05/04:30pm 24.0 - - - 1015.2 - - - - - - - - -
05/04:00pm 24.0 - - - 1015.1 - - - - - - - - -
05/03:30pm 24.9 - - - 1015.1 - - - - - - - - -
05/03:00pm 24.4 - - - 1015.1 - - - - - - - - -
05/02:30pm 24.1 - - - 1015.3 - - - - - - - - -
05/02:00pm 23.6 - - - 1015.4 - - - - - - - - -
05/01:30pm 23.8 - - - 1015.6 - - - - - - - - -
05/01:00pm 24.4 - - - 1015.9 - - - - - - - - -
05/12:30pm 24.3 - - - 1016.3 - - - - - - - - -
05/12:00pm 25.4 - - - 1016.7 - - - - - - - - -
05/11:30am 25.1 - - - 1017.0 - - - - - - - - -
05/11:00am 24.7 - - - 1017.4 - - - - - - - - -
05/10:30am 23.3 - - - 1017.9 - - - - - - - - -
05/10:00am 22.9 - - - 1018.3 - - - - - - - - -
05/09:30am 22.0 - - - 1018.6 - - - - - - - - -
05/09:00am 21.1 - - - 1019.0 - - - - - - - - -
05/08:30am 20.2 - - - 1019.2 - - - - - - - - -
05/08:00am 19.7 - - - 1019.6 - - - - - - - - -
05/07:30am 19.0 - - - 1019.7 - - - - - - - - -
05/07:00am 17.9 - - - 1019.7 - - - - - - - - -
05/06:30am 16.9 - - - 1019.6 - - - - - - - - -
05/06:00am 16.8 - - - 1019.6 - - - - - - - - -
05/05:30am 16.9 - - - 1019.4 - - - - - - - - -
05/05:00am 16.9 - - - 1019.1 - - - - - - - - -
05/04:30am 17.2 - - - 1019.0 - - - - - - - - -
05/04:00am 17.3 - - - 1019.0 - - - - - - - - -
05/03:30am 17.6 - - - 1019.0 - - - - - - - - -
05/03:00am 17.6 - - - 1019.0 - - - - - - - - -
05/02:30am 17.7 - - - 1019.1 - - - - - - - - -
05/02:00am 17.9 - - - 1019.2 - - - - - - - - -
05/01:30am 18.0 - - - 1019.4 - - - - - - - - -
05/01:00am 18.2 - - - 1019.5 - - - - - - - - -
05/12:30am 18.4 - - - 1019.8 - - - - - - - - -
05/12:00am 18.4 - - - 1019.9 - - - - - - - - -
 
Date/Time
WST
Temp

°C
Wind Pressure Rain
since 9am
mm
Weather Cloud Vis
km
Sea
Height
m
Swell
Dir
 
Speed
knots
Gust
knots
hPa Trend Height
m
Period
s
Dir
04/11:30pm 18.6 - - - 1020.2 - - - - - - - - -
04/11:00pm 18.8 - - - 1020.4 - - - - - - - - -
04/10:30pm 19.3 - - - 1020.4 - - - - - - - - -
04/10:00pm 19.5 - - - 1020.4 - - - - - - - - -
04/09:30pm 19.4 - - - 1020.4 - - - - - - - - -
04/09:00pm 19.7 - - - 1020.4 - - - - - - - - -
04/08:30pm 19.9 - - - 1020.1 - - - - - - - - -
04/08:00pm 20.0 - - - 1020.0 - - - - - - - - -
04/07:30pm 20.1 - - - 1019.9 - - - - - - - - -
04/07:00pm 20.2 - - - 1020.0 - - - - - - - - -
04/06:30pm 20.3 - - - 1019.7 - - - - - - - - -
04/06:00pm 20.6 - - - 1019.6 - - - - - - - - -
04/05:30pm 20.9 - - - 1019.5 - - - - - - - - -
04/05:00pm 21.1 - - - 1019.4 - - - - - - - - -
04/04:30pm 21.5 - - - 1019.4 - - - - - - - - -
04/04:00pm 21.6 - - - 1019.4 - - - - - - - - -
04/03:30pm 21.6 - - - 1019.7 - - - - - - - - -
04/03:00pm 22.3 - - - 1020.0 - - - - - - - - -
04/02:30pm 22.0 - - - 1020.4 - - - - - - - - -
04/02:00pm 22.2 - - - 1020.8 - - - - - - - - -
04/01:30pm 21.2 - - - 1021.1 - - - - - - - - -
04/01:00pm 21.3 - - - 1021.4 - - - - - - - - -
04/12:30pm 21.6 - - - 1022.0 - - - - - - - - -
04/12:00pm 21.4 - - - 1022.3 - - - - - - - - -
04/11:30am 20.4 - - - 1022.5 - - - - - - - - -
04/11:00am 21.3 - - - 1023.2 - - - - - - - - -
04/10:30am 21.1 - - - 1023.5 - - - - - - - - -
04/10:00am 21.0 - - - 1023.8 - - - - - - - - -
04/09:30am 20.1 - - - 1024.0 - - - - - - - - -
04/09:00am 19.9 - - - 1024.3 - - - - - - - - -
04/08:30am 19.4 - - - 1024.3 - - - - - - - - -
04/08:00am 18.9 - - - 1024.5 - - - - - - - - -
04/07:30am 17.0 - - - 1024.6 - - - - - - - - -
04/07:00am 15.4 - - - 1024.4 - - - - - - - - -
04/06:30am 15.3 - - - 1024.2 - - - - - - - - -
04/06:00am 15.2 - - - 1023.9 - - - - - - - - -
04/05:30am 15.2 - - - 1023.9 - - - - - - - - -
04/05:00am 15.3 - - - 1023.7 - - - - - - - - -
04/04:30am 15.8 - - - 1023.5 - - - - - - - - -
04/04:00am 15.8 - - - 1023.4 - - - - - - - - -
04/03:30am 15.7 - - - 1023.4 - - - - - - - - -
04/03:00am 15.9 - - - 1023.4 - - - - - - - - -
04/02:30am 16.5 - - - 1023.1 - - - - - - - - -
04/02:00am 16.9 - - - 1023.2 - - - - - - - - -
04/01:30am 17.2 - - - 1023.2 - - - - - - - - -
04/01:00am 17.5 - - - 1023.0 - - - - - - - - -
04/12:30am 17.6 - - - 1023.0 - - - - - - - - -
04/12:00am 18.1 - - - 1023.1 - - - - - - - - -
 
Date/Time
WST
Temp

°C
Wind Pressure Rain
since 9am
mm
Weather Cloud Vis
km
Sea
Height
m
Swell
Dir
 
Speed
knots
Gust
knots
hPa Trend Height
m
Period
s
Dir
03/11:30pm 18.1 - - - 1023.2 - - - - - - - - -
03/11:00pm 18.2 - - - 1023.2 - - - - - - - - -
03/10:30pm 18.4 - - - 1023.3 - - - - - - - - -
03/10:00pm 18.6 - - - 1023.5 - - - - - - - - -
03/09:30pm 18.9 - - - 1023.6 - - - - - - - - -
03/09:00pm 19.1 - - - 1023.8 - - - - - - - - -
03/08:30pm 19.3 - - - 1023.6 - - - - - - - - -
03/08:00pm 19.3 - - - 1023.2 - - - - - - - - -
03/07:30pm 19.5 - - - 1023.1 - - - - - - - - -
03/07:00pm 19.6 - - - 1022.8 - - - - - - - - -
03/06:30pm 19.9 - - - 1022.5 - - - - - - - - -
03/06:00pm 20.2 - - - 1022.2 - - - - - - - - -
03/05:30pm 20.3 - - - 1022.1 - - - - - - - - -
03/05:00pm 20.4 - - - 1022.0 - - - - - - - - -
03/04:30pm 20.3 - - - 1021.9 - - - - - - - - -
03/04:00pm 20.4 - - - 1022.1 - - - - - - - - -
03/03:30pm 20.5 - - - 1022.1 - - - - - - - - -
03/03:00pm 20.8 - - - 1022.1 - - - - - - - - -
03/02:30pm 20.3 - - - 1022.3 - - - - - - - - -
03/02:00pm 19.8 - - - 1022.4 - - - - - - - - -
03/01:30pm 20.0 - - - 1022.7 - - - - - - - - -
03/01:00pm 20.2 - - - 1022.8 - - - - - - - - -
03/12:30pm 20.2 - - - 1022.9 - - - - - - - - -
03/12:00pm 20.0 - - - 1023.1 - - - - - - - - -
03/11:30am 19.9 - - - 1023.1 - - - - - - - - -
03/11:00am 20.2 - - - 1023.4 - - - - - - - - -
03/10:30am 20.4 - - - 1023.4 - - - - - - - - -
03/10:00am 20.1 - - - 1023.3 - - - - - - - - -
03/09:30am 19.5 - - - 1023.2 - - - - - - - - -
03/09:00am 18.8 - - - 1023.1 - - - - - - - - -
03/08:30am 19.6 - - - 1022.9 - - - - - - - - -
03/08:00am 19.4 - - - 1022.8 - - - - - - - - -
03/07:30am 18.7 - - - 1022.7 - - - - - - - - -
03/07:00am 19.1 - - - 1022.4 - - - - - - - - -
03/06:30am 19.0 - - - 1022.1 - - - - - - - - -

Other Formats:

Comma delimited format used in spreadsheet applications
http://www.bom.gov.au/fwo/IDW60701/IDW60701.95648.axf

JavaScript Object Notation format (JSON) in row-major order
http://www.bom.gov.au/fwo/IDW60701/IDW60701.95648.json